Regional Weather Roundup
Issued by NWS Grand Forks, ND

Home | Current Version | Previous Version | Graphics & Text | Print | Product List | Glossary On
Versions: 1 2 3 4 5 6 7 8 9 10 11 12 13 14 15 16 17 18 19 20 21 22 23 24 25 26 27 28 29 30 31 32 33 34 35 36 37 38 39 40 41 42 43 44 45 46 47 48 49 50
000
ASUS43 KFGF 241010
RWRFGF
PRAIRIE TO PINES  WEATHER ROUNDUP
NATIONAL WEATHER SERVICE EASTERN NORTH DAKOTA/GRAND FORKS ND
500 AM CDT FRI OCT 24 2014

 **SATELLITE DATA USED TO AUGMENT SKY COVER AT AUTOMATED STATIONS**
 *****  WEATHER ACROSS EASTERN NORTH DAKOTA  *****

CITY           SKY/WX    TMP DP  RH WIND       PRES   REMARKS
GRAND FORKS    CLOUDY    40  36  86 S6        29.74S
GRAND FRKS AFB CLOUDY    47  37  69 SW9       29.74F
GRAND FRKS NWS   N/A     41 N/A N/A S3          N/A
DEVILS LAKE    PTCLDY    46  36  66 SW8       29.74S
FARGO          CLOUDY    47  41  80 S8        29.79S
WAHPETON ARPT  CLOUDY    43  36  75 SE6       29.82S
$$

 ***** WEATHER ACROSS CENTRAL AND WESTERN NORTH DAKOTA  *****

CITY           SKY/WX    TMP DP  RH WIND       PRES   REMARKS
BISMARCK       CLOUDY    40  31  70 CALM      29.82S
MINOT          PTCLDY    50  34  54 SW12      29.75F
JAMESTOWN      CLOUDY    42  36  79 CALM      29.78F
MINOT AFB      PTCLDY    47  36  65 W8        29.74F
GARRISON         N/A     44  38  79 W7        29.78F
WILLISTON      PTCLDY    45  35  68 SW10      29.80R
DICKINSON      CLOUDY    44  32  62 W5        29.82F
HETTINGER      CLOUDY    44  29  55 NW3       29.87F
$$

 *****  OTHER AIRPORT OBSERVATIONS IN OUR AREA  *****

CITY           SKY/WX    TMP DP  RH WIND       PRES   REMARKS
WALHALLA         N/A     50  36  57 SW7       29.70S
GRAFTON AIRPOR FAIR      48  39  71 SW8       29.72S
VALLEY CITY AR FAIR      41  41 100 S6        29.79F
CANDO          FAIR      39  36  87 SW5       29.76R
CAVALIER APRT  FAIR      48  37  66 SW3       29.71R
GWINNER        SUNNY     48  45  87 SW9       29.82S
SHEYENNE NWR     N/A     42  40  94 SW3       29.95S
ROLLA          FAIR      48  36  61 S5        29.74S
 ***** THE ABOVE OBSERVATIONS ARE NON NWS ARE NOT QUALITY
       CONTROLLED AND MAY MIS-REPORT RAIN FOR SNOW...
$$

  *****  WEATHER ACROSS NORTHERN MINNESOTA  *****

CITY           SKY/WX    TMP DP  RH WIND       PRES   REMARKS
FLAG ISLAND    MOCLDY    52  45  76 SE12      29.69F
WARROAD        CLOUDY    52  43  71 SW8       29.72F
ROSEAU         CLOUDY    52  43  71 S8        29.72S
HALLOCK        CLOUDY    46  39  76 S7        29.71F
THF RVR FALLS  MOCLDY    48  39  71 SW9       29.76S
BAUDETTE       CLOUDY    52  41  66 SE3       29.73F
WASKISH        CLOUDY    55  45  67 CALM      29.76F
CROOKSTON      CLOUDY    46  41  81 S9        29.77S
STEPHEN NDAWN    N/A     46  37  71 S5          N/A
GREENBUSH NDAW   N/A     48  39  71 SW5         N/A
$$
  *****  WEATHER ACROSS CENTRAL AND WEST MINNESOTA  *****

CITY           SKY/WX    TMP DP  RH WIND       PRES   REMARKS
FOSSTON        MOCLDY    50  43  76 S10       29.79S
BEMIDJI        CLOUDY    52  42  70 S7        29.80S
PARK RAPIDS    CLOUDY    47  41  80 SE6       29.83F
ELBOW LAKE     FAIR      46  42  88 SE7       29.84S
WADENA         CLOUDY    46  41  81 S5        29.84S
DETROIT LAKES  CLOUDY    50  45  81 S6        29.83S
MOORHEAD       CLOUDY    46  45  93 S8        29.81S
FERGUS FALLS   CLOUDY    48  39  71 SE7       29.84S
MORRIS MN      NOT AVBL
STAPLES        CLOUDY    48  43  81 S6        29.84F
$$
  *****  WEATHER ELSEWHERE ACROSS MINNESOTA  *****

CITY           SKY/WX    TMP DP  RH WIND       PRES   REMARKS
DULUTH         CLOUDY    48  46  93 SW10      29.90S FOG
INTRNTL FALLS  CLOUDY    52  42  69 VRB3      29.77F
ELY            CLOUDY    48  45  87 SW6       29.86S
CLOQUET        CLOUDY    46  46 100 S6        29.90S FOG
WHEATON        MOCLDY    39  37  93 SE7       29.84F
BRAINERD       CLOUDY    49  41  74 S7        29.86F
HIBBING        CLOUDY    38  36  92 CALM      29.86F
ALEXANDRIA     MOCLDY    47  43  86 S7        29.85F
SAINT CLOUD    MOCLDY    50  40  68 SE7       29.88F
MINNEAPOLIS    PTCLDY    47  44  90 E10       29.93F
$$

  *****  WEATHER ACROSS SOUTH DAKOTA  *****

CITY           SKY/WX    TMP DP  RH WIND       PRES   REMARKS
SIOUX FALLS    MOCLDY    53  50  89 S9        29.84F
BROOKINGS      NOT AVBL
WATERTOWN      MOCLDY    45  43  93 S6        29.84S
HURON          FOG       38  37  97 NW6       29.83S VSB 1/4
SISSETON         N/A     43  41  93 CALM      29.81F
ABERDEEN       FOG       35  34  96 SE6       29.83S VSB 3/4
MITCHELL       MOCLDY    50  44  80 SW8       29.84S
PIERRE         MOCLDY    44  34  67 W3        29.85F
MOBRIDGE       MOCLDY    42  39  89 SE3       29.83R
RAPID CITY     PTCLDY    43  32  65 NW5       29.89F
$$

  *****  SOME WEATHER IN NEARBY STATES *****

CITY           SKY/WX    TMP DP  RH WIND       PRES   REMARKS
GLASGOW MT     MOCLDY    49  40  71 S5        29.82R
GREAT FALLS MT CLEAR     45  36  70 SW14      29.92R
CHEYENNE WY      N/A     52  27  38 W6        30.15F
SCOTTSBLUFF NE CLOUDY    48  37  65 NW6       30.01S
OMAHA NE       MOCLDY    56  54  93 S9        29.97S
DES MOINES IA  FOG       55  54  96 S8        30.00F VSB 1/8
DAVENPORT IA   CLOUDY    48  46  93 CALM      30.06S FOG
CHICAGO IL     CLOUDY    53  44  71 SW5       30.05R
EAU CLAIRE WI  CLOUDY    49  48  97 S6        29.99F
LA CROSSE WI   CLOUDY    51  50  96 S7        30.02R FOG
$$

  *****  SOME NATIONAL WEATHER *****

CITY           SKY/WX    TMP DP  RH WIND       PRES   REMARKS
LA GUARDIA NY  CLOUDY    51  43  74 NW14      29.79R
RALEIGH NC     MOCLDY    44  40  85 CALM      30.02S
ATLANTA GA     CLOUDY    50  44  80 N6        30.05R
NEW ORLEANS LA PTCLDY    61  50  67 NE8       30.08S
OKLAHOMA CITY  PTCLDY    58  55  90 S7        30.09S
ALBUQUERQUE NM CLEAR     49  37  63 SE3       30.27F
SALT LAKE CITY PTCLDY    49  42  77 N3        30.10F
LOS ANGELES CA PTCLDY    64  64 100 CALM      29.96F
BOISE ID       LGT RAIN  52  49  89 SE5       30.08F
SEATTLE WA     CLOUDY    49  46  90 SE7       30.04R
$$

*** WEATHER ACROSS MANITOBA...SASKATCHEWAN AND ONTARIO ***
                ***ONTARIO***

CITY           SKY/WX    TMP DP  RH WIND       PRES   REMARKS
GERALDTON      FOG       45  45 100 S5        29.87R VSB 1/2
THUNDER BAY    CLOUDY    48  46  93 E3        29.90S
SIOUX LOOKOUT  MOCLDY    46  43  87 S7        29.75F
TORONTO        CLEAR     37  34  87 NW9       30.05S
BIG TROUT LK   CLOUDY    46  45  93 S5        29.67F
PICKLE LAKE    NOT AVBL
DRYDEN         CLOUDY    46  41  81 S9        29.74F
KENORA         CLOUDY    48  39  71 S7        29.72S
$$
                *** MANITOBA***

CITY           SKY/WX    TMP DP  RH WIND       PRES   REMARKS
BRANDON        MOCLDY    39  36  87 SW9       29.68F
DAUPHIN        CLEAR     52  39  62 SW7       29.60F
ISLAND LAKE    CLOUDY    48  48 100 S6        29.61F
PILOT MOUND      N/A     37  32  81 SW7         N/A
THE PAS        FOG       43  43 100 S5        29.48F VSB 3/8
THOMPSON       DRZL/FOG  37  37 100 CALM      29.54F VSB 1/4
WINNIPEG       MOCLDY    46  37  71 S5        29.68S
LYNN LAKE      LGT RAIN  36  36 100 SE7       29.48F VSB 1
CHURCHILL      LGT RAIN  37  37 100 E25G32    29.60F FOG
GILLAM         CLOUDY    39  37  93 SW7       29.57R FOG
$$
                ***SASKATCHEWAN***

CITY           SKY/WX    TMP DP  RH WIND       PRES   REMARKS
ESTEVAN        MOCLDY    50  39  66 SW12      29.73S
KINDERSLEY     CLOUDY    39  36  87 W8        29.62R
LLOYDMINSTER   MOCLDY    39  30  70 W16G22    29.59R
PRINCE ALBERT  CLOUDY    37  36  93 W3        29.52S
REGINA         MOCLDY    50  43  76 SW7       29.67S
YORKTON        CLEAR     50  41  71 SW15G22   29.60S
N. BATTLEFORD  PTCLDY    36  28  75 W3        29.59S
LA RONGE       CLEAR     41  37  87 W6        29.44S
SASKATOON      MOCLDY    39  36  87 W7        29.57R
SWIFT CURRENT  CLEAR     54  34  47 W29G36    29.67R
$$
NOTE: THESE ARE AUTOMATED STATIONS WITH LIMITED QUALITY CONTROL
      "FAIR" INDICATES FEW OR NO CLOUDS BELOW 12,000 FEET WITH NO
      SIGNIFICANT WEATHER AND/OR OBSTRUCTIONS TO VISIBILITY.
      SKY/WX - SKY CONDITION AND SIGNIFICANT WEATHER.
      TMP - AIR TEMPERATURE.    DP   - DEWPOINT TEMPERATURE.
      RH  - RELATIVE HUMIDITY.  PRES - PRESSURE.
      HX  - HEAT INDEX.         WCI  - WIND CHILL INDEX.
$



USA.gov is the U.S. government's official web portal to all federal, state and local government web resources and services.